Weather History for Sivas, Turkey

Change the Weather History Date:

Tuesday, July 16, 2013

  Actual Average Record
Temperature  
Mean Temperature 71 °F -  
Max Temperature 87 °F 82 °F - ()
Min Temperature 55 °F 52 °F - ()
Cooling Degree Days 6    
Growing Degree Days 21 (Base 50)    
Moisture  
Dew Point 47 °F    
Average Humidity 46    
Maximum Humidity 94    
Minimum Humidity 11    
Precipitation  
Precipitation 0.00 in 0.01 in - ()
Sea Level Pressure  
Sea Level Pressure 30.03 in    
Wind  
Wind Speed 6 mph ()    
Max Wind Speed 21 mph    
Max Gust Speed -    
Visibility 8.4 miles    
Events      
T = Trace of Precipitation, MM = Missing Value Source: Averaged Metar Reports

Daily Weather History Graph

Daily Weather History Graph

Search for Another Location

Airport:

Trip Planner

Search our weather history database for the weather conditions in past years. The results will help you decide how hot, cold, wet, or windy it might be!

Date:

Astronomy

Jul. 16, 2013 Rise Set
Actual Time 5:17 AM EEST 7:59 PM EEST
Civil Twilight 4:45 AM EEST 8:30 PM EEST
Nautical Twilight 4:06 AM EEST 9:10 PM EEST
Astronomical Twilight 3:21 AM EEST 9:54 PM EEST
Moon 1:17 PM EEST (7/16) No Moon Set
Length of Visible Light 15h 44m
Length of Day
14h 41m
First Quarter, 53% of the Moon is Illuminated
Jul 16
First Quarter
Jul 22
Full
Jul 29
Last Quarter
Aug 7
New
Aug 14
First Quarter

Hourly Weather History & Observations

Time (EEST) Temp. Dew Point Humidity Pressure Visibility Wind Dir Wind Speed Gust Speed Precip Events Conditions
12:00 AM 64 °F 50 °F 50%  in 9 mi Calm Calm - -  
12:50 AM 53.6 °F 50.0 °F 88% 30.04 in - North 4.6 mph - N/A   Clear
3:00 AM 59 °F 49 °F 59%  in 9 mi SSE 2.2 mph - -  
3:50 AM 51.8 °F 48.2 °F 88% 30.01 in - NNW 8.1 mph - N/A   Clear
4:50 AM 51.8 °F 48.2 °F 88% 30.04 in - Variable 1.2 mph - N/A   Clear
5:50 AM 51.8 °F 50.0 °F 94% 30.04 in - NNW 6.9 mph - N/A   Clear
6:00 AM 57 °F 50 °F 70%  in 9 mi Calm Calm - -  
6:50 AM 55.4 °F 51.8 °F 88% 30.04 in - NNW 13.8 mph - N/A   Clear
7:50 AM 60.8 °F 48.2 °F 63% 30.04 in - NNE 5.8 mph - N/A   Clear
8:50 AM 66.2 °F 44.6 °F 46% 30.04 in - Variable 4.6 mph - N/A   Clear
9:00 AM 68 °F 49 °F 39%  in 9 mi SSE 2.2 mph - -  
9:50 AM 69.8 °F 46.4 °F 43% 30.04 in - Variable 4.6 mph - N/A   Clear
10:00 AM 72 °F 47 °F 31%  in 9 mi East 6.7 mph - -  
10:50 AM 71.6 °F 44.6 °F 38% 30.04 in - NE 6.9 mph - N/A   Clear
11:00 AM 76 °F 46 °F 23%  in 9 mi SE 4.5 mph - -  
11:50 AM 75.2 °F 42.8 °F 31% 30.04 in - Variable 4.6 mph - N/A   Clear
12:00 PM 80 °F 45 °F 19%  in 9 mi North 6.7 mph - -  
12:50 PM 77.0 °F 41.0 °F 28% 30.01 in - North 5.8 mph - N/A   Clear
1:00 PM 84 °F 42 °F 14%  in 9 mi SSE 4.5 mph - -  
1:50 PM 78.8 °F 44.6 °F 30% 30.01 in 6.2 mi NW 12.7 mph - N/A   Scattered Clouds
2:00 PM 86 °F 40 °F 11%  in 9 mi NE 6.7 mph - -  
2:50 PM 77.0 °F 46.4 °F 34% 30.01 in 6.2 mi North 13.8 mph - N/A   Scattered Clouds
3:00 PM 86 °F 44 °F 14%  in 9 mi NNE 6.9 mph - -   Scattered Clouds
3:50 PM 77.0 °F 48.2 °F 36% 30.01 in 6.2 mi NNW 20.7 mph - N/A   Scattered Clouds
4:00 PM 86 °F 46 °F 16%  in 9 mi NNW 13.4 mph - -   Scattered Clouds
4:50 PM 75.2 °F 50.0 °F 41% 30.01 in 6.2 mi North 20.7 mph - N/A   Scattered Clouds
5:00 PM 85 °F 46 °F 16%  in 9 mi NNE 13.4 mph - -   Scattered Clouds
5:50 PM 73.4 °F 50.0 °F 44% 30.01 in - North 16.1 mph - N/A   Clear
6:00 PM 82 °F 48 °F 20%  in 9 mi NNE 5.8 mph - -  
6:50 PM 71.6 °F 50.0 °F 46% 30.01 in - North 17.3 mph - N/A   Clear
7:50 PM 66.2 °F 50.0 °F 56% 30.01 in - NNE 15.0 mph - N/A   Clear
8:50 PM 62.6 °F 48.2 °F 59% 30.04 in - NNE 13.8 mph - N/A   Clear
9:00 PM 70 °F 49 °F 36%  in 9 mi NNE 6.9 mph - -  
9:50 PM 59.0 °F 48.2 °F 67% 30.04 in - NNW 4.6 mph - N/A   Clear
10:50 PM 57.2 °F 48.2 °F 72% 30.04 in - Calm Calm - N/A   Clear
11:50 PM 57.2 °F 46.4 °F 67% 30.04 in - NW 3.5 mph - N/A   Clear